Flag for U.S.A. Weather past 2 weeks in Galveston, Texas, U.S.A.

Now
69 °F

Sunny.


Feels Like: 69 °F
Forecast: 63 / 72 °F
Wind: 10 mph from Southeast

Location: Scholes Field


UV Index: 5 (Moderate)

Visibility: 10 mi


Pressure: 30.09 "Hg

Humidity: 79%

Dew point: 62 °F

Location of GalvestonLocation

Historic Weather in Galveston

°F

Galveston temperature yesterday

Maximum temperature yesterday: 66 °F (at 8:52 AM)
Minimum temperature yesterday: 62 °F (at 11:52 PM)
Average temperature yesterday: 64 °F

Past Weeks' High & Low Weather Summary

 TemperatureHumidityPressure
High77 °F (Apr 14, 11:59 AM)100% (Apr 3, 9:52 PM)30.30 "Hg (Apr 3, 9:52 PM)
Low48 °F (Apr 15, 6:52 AM)28% (Apr 8, 5:52 PM)29.62 "Hg (Apr 6, 4:52 PM)
Average66 °F76%30.01 "Hg
* Reported Apr 3 6:52 PM — Apr 18 6:52 PM, Galveston, Weather by CustomWeather, © 2014

Note: Actual official high and low records may vary slightly from our data, if they occured in-between our weather recording intervals... More about our weather records

Advertising

Historic Weather Conditions — Data for Previous 24 hours

 ConditionsComfort  
Time TempWeatherWind HumidityBarometerVisibility
6:52 PM
Apr 18
69 °FSunny.10 mph79%30.09 "Hg10 mi
5:52 PM76 °FSunny.6 mph50%30.09 "Hg10 mi
4:52 PM76 °FSunny.10 mph48%30.09 "Hg10 mi
3:52 PM76 °FSunny.13 mph50%30.10 "Hg10 mi
2:52 PM74 °FSunny.13 mph53%30.13 "Hg10 mi
1:52 PM73 °FSunny.15 mph57%30.14 "Hg10 mi
12:52 PM71 °FSunny.12 mph61%30.16 "Hg10 mi
11:52 AM68 °FSunny.10 mph76%30.18 "Hg10 mi
10:52 AM68 °FSunny.10 mph76%30.19 "Hg10 mi
9:52 AM66 °FPassing clouds.10 mph78%30.18 "Hg10 mi
8:52 AM63 °FPartly sunny.12 mph81%30.18 "Hg10 mi
7:52 AM62 °FSunny.12 mph83%30.16 "Hg10 mi
6:52 AM59 °FClear.8 mph90%30.14 "Hg10 mi
5:52 AM59 °FPassing clouds.8 mph90%30.13 "Hg10 mi
4:52 AM60 °FMostly cloudy.10 mph90%30.13 "Hg10 mi
3:52 AM61 °FOvercast.8 mph87%30.11 "Hg10 mi
2:52 AM61 °FOvercast.12 mph87%30.11 "Hg10 mi
1:52 AM61 °FOvercast.9 mph87%30.12 "Hg10 mi
12:52 AM62 °FMostly cloudy.12 mph86%30.14 "Hg10 mi
11:52 PM
Apr 17
62 °FOvercast.9 mph86%30.14 "Hg10 mi
10:52 PM64 °FOvercast.8 mph84%30.14 "Hg10 mi
9:52 PM64 °FOvercast.10 mph84%30.13 "Hg10 mi
8:52 PM64 °FOvercast.10 mph84%30.13 "Hg10 mi
Weather by CustomWeather, © 2014

See weather overview